When you browse on this site, cookies collect data to enhance your experience and personalize the content and advertising you see.
Visit our Privacy Policy to learn more. By continuing to use the site, you agree to this use of cookies and data.
  • în România
  • Lista ţărilor
  • Pe 7 zile
  • Temperatura apei
  • Hartă satelitară
  • Meteo pe hartă
  • Widget-uri
  • user-avatar
    Intrare

    Meteo pe oră la Halol

    Astăzi, 22 Aprilie, Luni

    Timp Temperatura Precipitaţii Vânt Presiune Umiditate
    00:00 +34°C° 0 mm 2 m/s 746 mmHg 21%
    01:00 +34°C° 0 mm 2 m/s 746 mmHg 23%
    02:00 +33°C° 0 mm 3 m/s 745 mmHg 26%
    03:00 +32°C° 0 mm 2 m/s 746 mmHg 28%
    04:00 +31°C° 0 mm 2 m/s 746 mmHg 29%
    05:00 +30°C° 0 mm 1 m/s 746 mmHg 29%
    06:00 +31°C° 0 mm 1 m/s 746 mmHg 27%
    07:00 +34°C° 0 mm 2 m/s 747 mmHg 25%
    08:00 +35°C° 0 mm 2 m/s 747 mmHg 23%
    09:00 +37°C° 0 mm 2 m/s 747 mmHg 20%
    10:00 +39°C° 0 mm 2 m/s 747 mmHg 17%
    11:00 +41°C° 0 mm 1 m/s 747 mmHg 12%
    12:00 +42°C° 0 mm 1 m/s 747 mmHg 11%
    13:00 +43°C° 0 mm 1 m/s 746 mmHg 10%
    14:00 +43°C° 0 mm 1 m/s 746 mmHg 9%
    15:00 +43°C° 0 mm 1 m/s 745 mmHg 9%
    16:00 +43°C° 0 mm 1 m/s 745 mmHg 8%
    17:00 +43°C° 0 mm 2 m/s 745 mmHg 10%
    18:00 +42°C° 0 mm 3 m/s 745 mmHg 11%
    19:00 +40°C° 0 mm 3 m/s 745 mmHg 13%
    20:00 +40°C° 0 mm 4 m/s 746 mmHg 14%
    21:00 +38°C° 0 mm 3 m/s 746 mmHg 15%
    22:00 +37°C° 0 mm 3 m/s 746 mmHg 16%
    23:00 +36°C° 0 mm 3 m/s 746 mmHg 17%

    Mâine, 23 Aprilie, Marţi

    Timp Temperatura Precipitaţii Vânt Presiune Umiditate
    00:00 +36°C° 0 mm 2 m/s 746 mmHg 18%
    01:00 +35°C° 0 mm 2 m/s 746 mmHg 19%
    02:00 +34°C° 0 mm 2 m/s 746 mmHg 20%
    03:00 +34°C° 0 mm 2 m/s 746 mmHg 21%
    04:00 +32°C° 0 mm 1 m/s 746 mmHg 23%
    05:00 +31°C° 0 mm 1 m/s 746 mmHg 25%
    06:00 +33°C° 0 mm 1 m/s 747 mmHg 25%
    07:00 +35°C° 0 mm 2 m/s 747 mmHg 25%
    08:00 +36°C° 0 mm 2 m/s 748 mmHg 25%
    09:00 +38°C° 0 mm 2 m/s 748 mmHg 22%
    10:00 +40°C° 0 mm 2 m/s 748 mmHg 19%
    11:00 +42°C° 0 mm 2 m/s 748 mmHg 16%
    12:00 +43°C° 0 mm 2 m/s 747 mmHg 14%
    13:00 +44°C° 0 mm 1 m/s 746 mmHg 12%
    14:00 +45°C° 0 mm 1 m/s 746 mmHg 10%
    15:00 +45°C° 0 mm 1 m/s 746 mmHg 10%
    16:00 +46°C° 0 mm 2 m/s 745 mmHg 10%
    17:00 +46°C° 0 mm 2 m/s 745 mmHg 10%
    18:00 +44°C° 0 mm 3 m/s 745 mmHg 11%
    19:00 +43°C° 0 mm 3 m/s 746 mmHg 12%
    20:00 +41°C° 0 mm 4 m/s 746 mmHg 12%
    21:00 +40°C° 0 mm 4 m/s 746 mmHg 14%
    22:00 +38°C° 0 mm 3 m/s 747 mmHg 16%
    23:00 +37°C° 0 mm 3 m/s 747 mmHg 17%

    Poimâine, 24 Aprilie, Miercuri

    Timp Temperatura Precipitaţii Vânt Presiune Umiditate
    00:00 +37°C° 0 mm 3 m/s 747 mmHg 20%
    01:00 +36°C° 0 mm 3 m/s 747 mmHg 22%
    02:00 +35°C° 0 mm 4 m/s 747 mmHg 25%
    03:00 +35°C° 0 mm 3 m/s 747 mmHg 25%
    04:00 +34°C° 0 mm 2 m/s 747 mmHg 26%
    05:00 +32°C° 0 mm 2 m/s 747 mmHg 27%
    06:00 +34°C° 0 mm 2 m/s 747 mmHg 30%
    07:00 +35°C° 0 mm 3 m/s 748 mmHg 32%
    08:00 +36°C° 0 mm 4 m/s 749 mmHg 35%
    09:00 +38°C° 0 mm 4 m/s 748 mmHg 31%
    10:00 +41°C° 0 mm 4 m/s 748 mmHg 26%
    11:00 +43°C° 0 mm 4 m/s 748 mmHg 22%
    12:00 +44°C° 0 mm 4 m/s 748 mmHg 19%
    13:00 +45°C° 0 mm 4 m/s 747 mmHg 16%
    14:00 +46°C° 0 mm 3 m/s 746 mmHg 13%
    15:00 +46°C° 0 mm 3 m/s 746 mmHg 12%
    16:00 +47°C° 0 mm 4 m/s 745 mmHg 12%
    17:00 +47°C° 0 mm 4 m/s 745 mmHg 12%
    18:00 +45°C° 0 mm 4 m/s 745 mmHg 13%
    19:00 +43°C° 0 mm 4 m/s 746 mmHg 14%
    20:00 +42°C° 0 mm 5 m/s 746 mmHg 16%
    21:00 +41°C° 0 mm 5 m/s 747 mmHg 17%
    22:00 +38°C° 0 mm 4 m/s 747 mmHg 18%
    23:00 +37°C° 0 mm 4 m/s 747 mmHg 19%

    25 Aprilie, Joi

    Timp Temperatura Precipitaţii Vânt Presiune Umiditate
    00:00 +37°C° 0 mm 4 m/s 747 mmHg 20%
    01:00 +36°C° 0 mm 3 m/s 746 mmHg 21%
    02:00 +35°C° 0 mm 3 m/s 746 mmHg 22%
    03:00 +34°C° 0 mm 3 m/s 746 mmHg 26%
    04:00 +33°C° 0 mm 3 m/s 746 mmHg 29%
    05:00 +32°C° 0 mm 2 m/s 746 mmHg 33%
    06:00 +34°C° 0 mm 3 m/s 747 mmHg 33%
    07:00 +34°C° 0 mm 3 m/s 748 mmHg 33%
    08:00 +35°C° 0 mm 4 m/s 748 mmHg 32%
    09:00 +38°C° 0 mm 4 m/s 748 mmHg 27%
    10:00 +41°C° 0 mm 4 m/s 748 mmHg 21%
    11:00 +43°C° 0 mm 4 m/s 748 mmHg 15%
    12:00 +44°C° 0 mm 4 m/s 748 mmHg 14%
    13:00 +45°C° 0 mm 4 m/s 747 mmHg 13%
    14:00 +48°C° 0 mm 4 m/s 746 mmHg 11%
    15:00 +47°C° 0 mm 4 m/s 746 mmHg 11%
    16:00 +47°C° 0 mm 5 m/s 746 mmHg 11%
    17:00 +47°C° 0 mm 5 m/s 745 mmHg 11%
    18:00 +44°C° 0 mm 4 m/s 746 mmHg 13%
    19:00 +43°C° 0 mm 4 m/s 746 mmHg 14%
    20:00 +40°C° 0 mm 3 m/s 747 mmHg 15%
    21:00 +39°C° 0 mm 3 m/s 747 mmHg 17%
    22:00 +40°C° 0 mm 4 m/s 747 mmHg 18%
    23:00 +38°C° 0 mm 4 m/s 747 mmHg 20%

    26 Aprilie, Vineri

    Timp Temperatura Precipitaţii Vânt Presiune Umiditate
    00:00 +37°C° 0 mm 4 m/s 747 mmHg 22%
    01:00 +36°C° 0 mm 3 m/s 746 mmHg 24%
    02:00 +35°C° 0 mm 3 m/s 745 mmHg 26%
    03:00 +35°C° 0 mm 3 m/s 745 mmHg 30%
    04:00 +34°C° 0 mm 3 m/s 746 mmHg 33%
    05:00 +33°C° 0 mm 3 m/s 746 mmHg 37%
    06:00 +34°C° 0 mm 4 m/s 746 mmHg 34%
    07:00 +35°C° 0 mm 4 m/s 747 mmHg 31%
    08:00 +36°C° 0 mm 5 m/s 748 mmHg 28%
    09:00 +40°C° 0 mm 4 m/s 748 mmHg 23%
    10:00 +42°C° 0 mm 4 m/s 747 mmHg 18%
    11:00 +44°C° 0 mm 4 m/s 747 mmHg 13%
    12:00 +47°C° 0 mm 4 m/s 747 mmHg 12%
    13:00 +48°C° 0 mm 4 m/s 746 mmHg 11%
    14:00 +49°C° 0 mm 4 m/s 745 mmHg 10%
    15:00 +49°C° 0 mm 4 m/s 745 mmHg 10%
    16:00 +48°C° 0 mm 4 m/s 745 mmHg 10%
    17:00 +48°C° 0 mm 5 m/s 744 mmHg 10%
    18:00 +47°C° 0 mm 5 m/s 745 mmHg 11%
    19:00 +45°C° 0 mm 5 m/s 746 mmHg 12%
    20:00 +42°C° 0 mm 5 m/s 746 mmHg 13%
    21:00 +41°C° 0 mm 5 m/s 746 mmHg 14%
    22:00 +41°C° 0 mm 4 m/s 746 mmHg 15%
    23:00 +40°C° 0 mm 4 m/s 747 mmHg 16%

    27 Aprilie, Sâmbătă

    Timp Temperatura Precipitaţii Vânt Presiune Umiditate
    00:00 +38°C° 0 mm 4 m/s 746 mmHg 16%
    01:00 +38°C° 0 mm 4 m/s 746 mmHg 16%
    02:00 +37°C° 0 mm 4 m/s 745 mmHg 16%
    03:00 +36°C° 0 mm 4 m/s 745 mmHg 19%
    04:00 +36°C° 0 mm 4 m/s 745 mmHg 22%
    05:00 +35°C° 0 mm 4 m/s 745 mmHg 25%
    06:00 +35°C° 0 mm 5 m/s 746 mmHg 27%
    07:00 +36°C° 0 mm 5 m/s 746 mmHg 28%
    08:00 +37°C° 0 mm 5 m/s 747 mmHg 29%
    09:00 +40°C° 0 mm 5 m/s 747 mmHg 24%
    10:00 +43°C° 0 mm 5 m/s 747 mmHg 19%
    11:00 +46°C° 0 mm 5 m/s 747 mmHg 14%
    12:00 +47°C° 0 mm 5 m/s 746 mmHg 13%
    13:00 +48°C° 0 mm 5 m/s 745 mmHg 11%
    14:00 +49°C° 0 mm 6 m/s 745 mmHg 10%
    15:00 +49°C° 0 mm 6 m/s 744 mmHg 10%
    16:00 +49°C° 0 mm 6 m/s 744 mmHg 10%
    17:00 +48°C° 0 mm 6 m/s 744 mmHg 10%
    18:00 +46°C° 0 mm 6 m/s 744 mmHg 11%
    19:00 +45°C° 0 mm 6 m/s 745 mmHg 11%
    20:00 +42°C° 0 mm 6 m/s 746 mmHg 12%
    21:00 +41°C° 0 mm 5 m/s 746 mmHg 13%
    22:00 +40°C° 0 mm 5 m/s 746 mmHg 13%
    23:00 +38°C° 0 mm 4 m/s 746 mmHg 14%
    Arată mai mult